Location: Kielce
(50.8833°N, 20.6167°E)
Time: 22:03:00
(UTC+02:00)

SR - Pass Details

Date: 28 April 2021
Orbit: 573 x 882 km, 66.7° (Epoch: 09 May)

Event Time Altitude Azimuth Distance (km) Brightness Sun altitude
Rises 08:46:10 0° 268° (W) 3,436 ? 31.5°
Reaches altitude 10° 08:49:08 10° 282° (WNW) 2,525 ? 31.9°
Maximum altitude 08:53:51 24° 335° (NNW) 1,746 ? 32.6°
Drops below altitude 10° 08:58:36 10° 29° (NNE) 2,542 ? 33.3°
Sets 09:01:36 0° 43° (NE) 3,464 ? 33.8°
